{"data":{"norad_id":55141,"intl_designator":"2023-004B","name":"ONEWEB-0533","alt_names":[],"object_type":"PAYLOAD","status":"ACTIVE","operator":null,"country":"UK","launch_date":"2023-01-10","launch_site_code":"AFETR","launch_vehicle":null,"mission":null,"orbit_class":"UNKNOWN","rcs_meters":null,"size_class":null,"mass_kg":null,"dimensions":null,"purposes":["comms"],"wikipedia_slug":null,"has_3d_model":false,"image_url":null,"decayed_at":null,"tle_current":{"epoch":"2026-05-25T03:05:31.282656Z","epoch_age_seconds":67425,"freshness":"FRESH","line1":"1 55141U 23004B   26145.12883429  .00000069  00000+0  15684-3 0  9991","line2":"2 55141  87.8962 355.2562 0001957  83.2701 276.8650 13.12440624165035","mean_motion":13.12440624,"eccentricity":0.0001957,"inclination_deg":87.8962,"raan_deg":355.2562,"arg_perigee_deg":83.2701,"mean_anomaly_deg":276.865,"bstar":0.00015684,"rev_number":16503,"period_min":109.71924928773,"perigee_km":1212.2467248982,"apogee_km":1215.2181826024,"semimajor_km":7591.8694537503,"source":"CELESTRAK","updated_at":"2026-05-25T13:38:22.639212Z"}}}